Location: Newark
(41.8922°N, 9.0050°E)
Time: 15:43:10
(UTC+00:00)

Envisat - Pass Details

Date: 31 January 2020
Orbit: 764 x 766 km, 98.1° (Epoch: 22 February)

Event Time Altitude Azimuth Distance (km) Brightness Sun altitude
Rises 17:03:47 0° 162° (SSE) 3,218 6.2 -5.5°
Reaches altitude 10° 17:06:04 10° 161° (SSE) 2,296 5.5 -5.9°
Maximum altitude 17:11:08 80° 75° (ENE) 782 3.0 -6.8°
Drops below altitude 10° 17:16:14 10° 349° (N) 2,311 5.4 -7.7°
Sets 17:18:32 0° 349° (N) 3,242 6.2 -8.1°
